Location: Amsterdam
(30.7274°N, 84.4357°W)
Time: 12:06:20
(UTC+00:00)

AO-73 - Visible Passes

Search period start: 15 March 2026 00:00
Search period end: 25 March 2026 00:00
Orbit: 516 x 568 km, 97.8° (Epoch: 14 March)

Date Brightness Start Highest point End Pass type
(mag) Time Alt. Az. Time Alt. Az. Time Alt. Az.
22 Mar ? 09:44:01 10° N 09:44:11 11° N 09:44:11 11° N visible
23 Mar ? 09:37:05 10° N 09:37:26 12° N 09:37:26 12° N visible
24 Mar ? 09:30:09 10° N 09:30:40 13° N 09:30:40 13° N visible
